This demonstration page uses our WeatherBlox Daily Observations layout. Learn more.

Left ArrowRight Arrow

Hourly Observations for November 24, 2021

Temp ( °F °C ) Dew Point ( °F °C ) Humidity (%) Winds ( mph kmh ) Pressure ( in mb ) Visibility ( mi km ) Precip ( " mm )
12:53 am 00:53 Mostly Cloudy 19 -7.2 14 -10 81 81 W 5 7 30.15 1021 10 16 0.00 0.00
1:53 am 01:53 Cloudy 21 -6.1 16 -8.9 81 81 W 6 9 30.18 1022 10 16 0.00 0.00
2:53 am 02:53 Cloudy 21 -6.1 16 -8.9 81 81 W 9 15 30.22 1023 10 16 0.00 0.00
3:44 am 03:44 Cloudy with Light Snow 21 -6.1 18 -7.8 88 88 W 7 11 30.33 1027 2 3 0.00 0.00
3:50 am 03:50 Cloudy with Light Snow 21 -6 18 -8 86 86 W 7 11 30.33 1027 1 2 0.00 0.00
3:53 am 03:53 Cloudy with Light Snow 21 -6.1 19 -7.2 92 92 W 7 11 30.24 1024 1 2 0.00 0.00
4:02 am 04:02 Cloudy with Light Snow 21 -6.1 19 -7.2 92 92 W 5 7 30.33 1027 2 2 0.01 0.25
4:22 am 04:22 Cloudy with Light Snow 21 -6.1 19 -7.2 92 92 SW 7 11 30.34 1027 3 4 0.02 0.51
4:30 am 04:30 Cloudy with Light Snow 21 -6.1 19 -7.2 92 92 SW 6 9 30.34 1027 3 5 0.02 0.51
4:34 am 04:34 Cloudy with Light Snow 21 -6.1 19 -7.2 92 92 SSW 6 9 30.34 1027 3 5 0.02 0.51
4:41 am 04:41 Cloudy with Light Snow 21 -6.1 19 -7.2 92 92 SSW 8 13 30.35 1028 2 3 0.02 0.51
4:53 am 04:53 Cloudy with Light Snow 21 -6.1 19 -7.2 92 92 SW 7 11 30.27 1025 3 4 0.02 0.51
5:06 am 05:06 Cloudy with Light Snow 21 -6.1 19 -7.2 92 92 SW 7 11 30.35 1028 2 3 0.01 0.25
5:20 am 05:20 Cloudy with Light Snow 21 -6.1 19 -7.2 92 92 SW 7 11 30.35 1028 3 4 0.01 0.25
5:31 am 05:31 Cloudy with Light Snow 21 -6.1 19 -7.2 92 92 SW 8 13 30.36 1028 3 5 0.01 0.25
5:42 am 05:42 Cloudy with Light Snow 21 -6.1 19 -7.2 92 92 WSW 7 11 30.35 1028 3 5 0.02 0.51
5:50 am 05:50 Cloudy with Light Snow 21 -6 19 -7 93 93 W 7 11 30.36 1028 2 3 0.02 0.51
5:53 am 05:53 Cloudy with Light Snow 21 -6.1 19 -7.2 92 92 W 7 11 30.29 1026 2 3 0.02 0.51
6:18 am 06:18 Cloudy with Light Snow 21 -6 19 -7 93 93 WSW 7 11 30.37 1028 4 6 0.00 0.00
6:44 am 06:44 Cloudy with Light Snow 21 -6.1 19 -7.2 92 92 W 7 11 30.39 1029 3 4 0.00 0.00
6:53 am 06:53 Cloudy with Light Snow 21 -6.1 19 -7.2 92 92 NW 6 9 30.32 1027 2 3 0.00 0.00
7:04 am 07:04 Cloudy with Light Snow 21 -6.1 19 -7.2 92 92 WNW 5 7 30.40 1029 4 6 0.01 0.25
7:20 am 07:20 Cloudy with Light Snow 21 -6 19 -7 93 93 WNW 6 9 30.41 1030 2 3 0.00 0.00
7:31 am 07:31 Cloudy with Light Snow 21 -6.1 19 -7.2 92 92 NW 6 9 30.42 1030 2 3 0.01 0.25
7:39 am 07:39 Cloudy with Light Snow 20 -6.7 18 -7.8 92 92 NW 6 9 30.43 1030 3 4 0.01 0.25
7:46 am 07:46 Cloudy with Light Snow 20 -6.7 18 -7.8 92 92 NW 5 7 30.44 1031 3 5 0.01 0.25
7:53 am 07:53 Cloudy with Light Snow 20 -6.7 18 -7.8 92 92 NNW 3 6 30.36 1028 3 5 0.01 0.25
8:43 am 08:43 Cloudy with Light Snow 20 -6.7 18 -7.8 92 92 NW 3 6 30.46 1031 2 3 0.01 0.25
8:53 am 08:53 Cloudy with Light Snow 20 -6.7 18 -7.8 92 92 NW 3 6 30.39 1029 1 2 0.01 0.25
9:00 am 09:00 Cloudy with Light Snow 21 -6.1 18 -7.8 88 88 Calm 30.46 1031 2 2 0.00 0.00
9:13 am 09:13 Cloudy with Light Snow 21 -6.1 19 -7.2 92 92 Calm 30.46 1031 2 3 0.00 0.00
9:43 am 09:43 Cloudy with Light Snow 21 -6.1 18 -7.8 88 88 Calm 30.47 1032 2 2 0.00 0.00
9:51 am 09:51 Cloudy with Light Snow 21 -6 18 -8 86 86 Calm 30.47 1032 2 3 0.00 0.00
9:53 am 09:53 Cloudy with Light Snow 21 -6.1 18 -7.8 88 88 Calm 30.41 1030 3 4 0.00 0.00
10:02 am 10:02 Cloudy with Light Snow 21 -6.1 18 -7.8 88 88 Calm 30.47 1032 4 6 0.00 0.00
10:20 am 10:20 Partly Cloudy 21 -6.1 19 -7.2 92 92 Calm 30.48 1032 9 14 0.00 0.00
10:53 am 10:53 Sunny 21 -6.1 19 -7.2 92 92 WSW 5 7 30.43 1030 10 16 0.00 0.00
11:53 am 11:53 Sunny 22 -5.6 19 -7.2 89 89 WSW 5 7 30.43 1031 10 16 0.00 0.00
12:53 pm 12:53 Sunny 21 -6.1 18 -7.8 88 88 WSW 7 11 30.44 1031 10 16 0.00 0.00
1:53 pm 13:53 Sunny 22 -5.6 19 -7.2 89 89 SW 5 7 30.42 1030 10 16 0.00 0.00
2:53 pm 14:53 Sunny 22 -5.6 19 -7.2 89 89 Calm 30.41 1030 10 16 0.00 0.00
3:53 pm 15:53 Sunny 19 -7.2 16 -8.9 88 88 E 5 7 30.43 1031 10 16 0.00 0.00
4:53 pm 16:53 Clear 13 -10.6 11 -11.7 92 92 E 5 7 30.42 1030 10 16 0.00 0.00
5:53 pm 17:53 Clear 15 -9.4 12 -11.1 88 88 ENE 7 11 30.40 1029 10 16 0.00 0.00
6:53 pm 18:53 Clear 12 -11.1 11 -11.7 95 95 E 5 7 30.39 1029 10 16 0.00 0.00
7:53 pm 19:53 Clear 12 -11.1 10 -12.2 92 92 ENE 7 11 30.39 1029 10 16 0.00 0.00
8:53 pm 20:53 Clear 13 -10.6 10 -12.2 88 88 E 3 6 30.35 1028 10 16 0.00 0.00
9:53 pm 21:53 Clear 14 -10 11 -11.7 88 88 E 3 6 30.33 1027 10 16 0.00 0.00
10:53 pm 22:53 Clear 14 -10 11 -11.7 88 88 E 7 11 30.29 1026 10 16 0.00 0.00
11:53 pm 23:53 Mostly Cloudy 18 -7.8 14 -10 84 84 Calm 30.25 1024 10 16 0.00 0.00

Powered by AerisWeather